GW3498 Weather Reports


Display with metric or nautical units.
time (UTC)temp
F
wind
direction
speed
MPH
gust
MPH
rain 1hr
in
rain 24hr
in
rain mn
in
humidity
%
barometer
mb
20260905131519 93 234 2.0 6.0 0.00 0.00 0.00 32 1019.4
20260905130554 93 252 2.0 7.0 0.00 0.00 0.00 33 1019.3
20260905125528 93 8 3.0 8.0 0.00 0.00 0.00 32 1019.4
20260905124523 94 255 2.0 3.0 0.00 0.00 0.00 32 1019.4
20260905123519 94 217 1.0 3.0 0.00 0.00 0.00 31 1019.4
20260905122533 95 311 1.0 2.0 0.00 0.00 0.00 29 1019.6
20260905121547 93 14 2.0 7.0 0.00 0.00 0.00 31 1019.7
20260905120521 94 340 1.0 4.0 0.00 0.00 0.00 31 1019.7
20260905115517 92 164 2.0 6.0 0.00 0.00 0.00 31 1019.8
20260905114531 93 228 2.0 4.0 0.00 0.00 0.00 31 1019.7
20260905113526 92 186 1.0 3.0 0.00 0.00 0.00 31 1019.8
20260905112520 92 138 2.0 4.0 0.00 0.00 0.00 31 1019.7
20260905111555 92 149 2.0 4.0 0.00 0.00 0.00 30 1019.8
20260905110531 92 193 1.0 7.0 0.00 0.00 0.00 31 1019.9
20260905105523 91 185 2.0 4.0 0.00 0.00 0.00 30 1019.9
20260905104518 92 261 1.0 4.0 0.00 0.00 0.00 30 1019.9
20260905103533 91 210 1.0 3.0 0.00 0.00 0.00 29 1019.9
20260905102527 92 205 2.0 3.0 0.00 0.00 0.00 29 1019.9
20260905101522 91 198 2.0 6.0 0.00 0.00 0.00 30 1020.1
20260905100517 91 191 1.0 3.0 0.00 0.00 0.00 30 1020.2
20260905095532 91 195 1.0 4.0 0.00 0.00 0.00 34 1020.2
20260905094526 91 146 1.0 3.0 0.00 0.00 0.00 33 1020.2
20260905093521 91 152 0.0 2.0 0.00 0.00 0.00 32 1020.1
20260905092534 91 177 1.0 3.0 0.00 0.00 0.00 33 1020.1
20260905091534 90 196 0.0 2.0 0.00 0.00 0.00 32 1020.2
20260905090524 90 193 1.0 3.0 0.00 0.00 0.00 34 1020.1
20260905085519 89 178 1.0 3.0 0.00 0.00 0.00 36 1020.2
20260905084536 88 163 0.0 1.0 0.00 0.00 0.00 37 1020.2
20260905083528 88 158 0.0 1.0 0.00 0.00 0.00 38 1020.2
20260905082523 87 163 1.0 2.0 0.00 0.00 0.00 40 1020.1
20260905081517 87 164 1.0 2.0 0.00 0.00 0.00 40 1019.9
20260905080534 86 163 1.0 2.0 0.00 0.00 0.00 41 1019.9
20260905075527 86 178 0.0 2.0 0.00 0.00 0.00 41 1019.7
20260905074522 85 161 0.0 1.0 0.00 0.00 0.00 41 1020.0
20260905073517 83 180 0.0 1.0 0.00 0.00 0.00 44 1019.9
20260905072531 80 147 0.0 1.0 0.00 0.00 0.00 45 1020.0
20260905071526 78 124 0.0 2.0 0.00 0.00 0.00 47 1020.1
20260905070522 77 0.0 0.0 0.00 0.00 0.00 53 1020.0
20260905065519 76 0.0 0.0 0.00 0.00 0.00 55 1019.9
20260905064532 75 70 0.0 1.0 0.00 0.00 0.00 59 1019.9
20260905063527 74 0.0 0.0 0.00 0.00 0.00 63 1019.7
20260905062523 73 0.0 0.0 0.00 0.00 0.00 63 1019.7
20260905061516 73 23 0.0 1.0 0.00 0.00 0.00 64 1019.6
20260905060551 72 31 0.0 1.0 0.00 0.00 0.00 64 1019.5
20260905055546 71 0.0 0.0 0.00 0.00 0.00 66 1019.4
20260905054520 71 0.0 0.0 0.00 0.00 0.00 65 1019.4
20260905053535 69 0.0 0.0 0.00 0.00 0.00 67 1019.3
20260905052529 69 0.0 0.0 0.00 0.00 0.00 67 1019.3
20260905051524 69 163 0.0 1.0 0.00 0.00 0.00 67 1019.0
20260905050518 69 0.0 0.0 0.00 0.00 0.00 65 1019.0
20260905045533 70 178 0.0 1.0 0.00 0.00 0.00 64 1019.0
20260905044549 73 151 0.0 1.0 0.00 0.00 0.00 60 1018.9
20260905043523 73 13 1.0 1.0 0.00 0.00 0.00 56 1018.8
20260905042518 71 27 1.0 1.0 0.00 0.00 0.00 61 1018.8
20260905041534 71 0.0 0.0 0.00 0.00 0.00 63 1018.8
20260905040527 72 0.0 0.0 0.00 0.00 0.00 62 1018.8
20260905035522 72 0.0 0.0 0.00 0.00 0.00 61 1018.7
20260905034517 74 194 0.0 1.0 0.00 0.00 0.00 57 1018.8
20260905033532 77 34 0.0 1.0 0.00 0.00 0.00 51 1018.7
20260905032527 76 39 0.0 1.0 0.00 0.00 0.00 53 1018.7
20260905031521 75 37 1.0 1.0 0.00 0.00 0.00 54 1018.7
20260905030536 73 0.0 0.0 0.00 0.00 0.00 58 1018.9
20260905025530 71 69 0.0 1.0 0.00 0.00 0.00 60 1019.0
20260905024545 71 0.0 0.0 0.00 0.00 0.00 60 1018.9
20260905023520 72 0.0 0.0 0.00 0.00 0.00 59 1019.0
20260905022535 74 165 0.0 1.0 0.00 0.00 0.00 54 1018.9
20260905021529 74 24 0.0 1.0 0.00 0.00 0.00 52 1018.9
20260905020524 76 0.0 0.0 0.00 0.00 0.00 49 1019.0
20260905015541 77 18 0.0 1.0 0.00 0.00 0.00 46 1018.9
20260905014533 76 39 1.0 1.0 0.00 0.00 0.00 46 1019.1
20260905013527 76 34 1.0 1.0 0.00 0.00 0.00 47 1019.2
20260905012542 75 41 0.0 1.0 0.00 0.00 0.00 46 1019.2
20260905011537 75 51 0.0 1.0 0.00 0.00 0.00 46 1019.4
20260905010531 75 0.0 0.0 0.00 0.00 0.00 43 1019.4
20260905005526 75 43 0.0 1.0 0.00 0.00 0.00 41 1019.6
20260905004520 75 40 0.0 1.0 0.00 0.00 0.00 42 1019.4
20260905003535 75 0.0 0.0 0.00 0.00 0.00 43 1019.5
20260905002530 75 0.0 0.0 0.00 0.00 0.00 43 1019.6
20260905001524 75 0.0 0.0 0.00 0.00 0.00 47 1019.6
20260905000519 75 48 0.0 1.0 0.00 0.00 0.00 47 1019.6
20260904235534 75 0.0 0.0 0.00 0.00 0.00 45 1019.8
20260904234529 75 0.0 0.0 0.00 0.00 0.00 45 1019.8
20260904233523 76 0.0 0.0 0.00 0.00 0.00 43 1019.9
20260904232517 76 41 0.0 1.0 0.00 0.00 0.00 44 1020.0
20260904231532 76 51 0.0 1.0 0.00 0.00 0.00 45 1020.0
20260904230526 76 58 0.0 1.0 0.00 0.00 0.00 45 1019.9
20260904225520 75 36 0.0 1.0 0.00 0.00 0.00 52 1020.0
20260904224554 76 41 0.0 1.0 0.00 0.00 0.00 53 1020.0
20260904223549 77 45 0.0 1.0 0.00 0.00 0.00 51 1020.0
20260904222523 76 35 0.0 1.0 0.00 0.00 0.00 50 1020.0
20260904221539 76 50 0.0 1.0 0.00 0.00 0.00 48 1020.1
20260904220554 77 0.0 0.0 0.00 0.00 0.00 47 1019.9
20260904215529 76 40 0.0 1.0 0.00 0.00 0.00 47 1020.0
20260904214544 76 28 0.0 1.0 0.00 0.00 0.00 49 1019.9
20260904213519 76 56 0.0 1.0 0.00 0.00 0.00 49 1019.9
20260904212534 76 52 0.0 1.0 0.00 0.00 0.00 50 1020.0
20260904211528 77 0.0 0.0 0.00 0.00 0.00 52 1020.0
20260904210604 77 39 0.0 1.0 0.00 0.00 0.00 51 1020.0
20260904205518 77 0.0 0.0 0.00 0.00 0.00 52 1020.1
20260904204533 78 0.0 0.0 0.00 0.00 0.00 51 1020.0
20260904203526 78 43 0.0 1.0 0.00 0.00 0.00 50 1020.2
20260904202521 76 0.0 0.0 0.00 0.00 0.00 52 1020.2
20260904201516 77 39 0.0 1.0 0.00 0.00 0.00 51 1020.2
20260904200531 76 0.0 0.0 0.00 0.00 0.00 53 1020.4
20260904195526 78 0.0 0.0 0.00 0.00 0.00 51 1020.3
20260904194701 80 19 0.0 2.0 0.00 0.00 0.00 46 1020.3
20260904193536 79 3 1.0 3.0 0.00 0.00 0.00 46 1020.2
20260904192530 79 25 1.0 2.0 0.00 0.00 0.00 46 1020.4
20260904191524 79 52 0.0 2.0 0.00 0.00 0.00 47 1020.2
20260904190519 80 65 0.0 1.0 0.00 0.00 0.00 46 1020.3
20260904185533 80 40 1.0 3.0 0.00 0.00 0.00 44 1020.2
20260904184528 80 12 1.0 2.0 0.00 0.00 0.00 44 1020.1
20260904183550 81 19 1.0 3.0 0.00 0.00 0.00 43 1020.0
20260904182539 81 38 1.0 2.0 0.00 0.00 0.00 44 1019.9
20260904181533 81 40 1.0 2.0 0.00 0.00 0.00 45 1019.8
20260904180527 81 94 0.0 1.0 0.00 0.00 0.00 47 1019.6
20260904175522 82 27 1.0 3.0 0.00 0.00 0.00 46 1019.4
20260904174516 82 23 2.0 4.0 0.00 0.00 0.00 46 1019.3
20260904173531 83 15 1.0 3.0 0.00 0.00 0.00 48 1019.3
20260904172526 83 13 1.0 3.0 0.00 0.00 0.00 47 1019.3
20260904171520 84 345 1.0 3.0 0.00 0.00 0.00 46 1019.3
20260904170534 85 335 1.0 3.0 0.00 0.00 0.00 44 1019.3
20260904165530 86 304 1.0 3.0 0.00 0.00 0.00 42 1019.3
20260904164524 86 278 1.0 2.0 0.00 0.00 0.00 41 1019.2
20260904163519 87 20 1.0 4.0 0.00 0.00 0.00 41 1019.2
20260904162533 88 347 1.0 6.0 0.00 0.00 0.00 39 1019.2
20260904161529 89 277 1.0 3.0 0.00 0.00 0.00 39 1019.3
20260904160523 88 287 2.0 4.0 0.00 0.00 0.00 38 1019.0
20260904155518 88 353 3.0 6.0 0.00 0.00 0.00 38 1019.1
20260904154532 89 355 2.0 4.0 0.00 0.00 0.00 38 1018.9
20260904153526 90 265 2.0 4.0 0.00 0.00 0.00 37 1019.0
20260904152521 91 212 1.0 4.0 0.00 0.00 0.00 37 1019.1
20260904151535 91 254 1.0 4.0 0.00 0.00 0.00 37 1019.2
20260904150531 91 291 2.0 6.0 0.00 0.00 0.00 38 1018.9
20260904145524 91 241 2.0 6.0 0.00 0.00 0.00 38 1019.0
20260904144520 92 230 1.0 3.0 0.00 0.00 0.00 37 1019.2